Location: Slidell
(30.2789°N, 89.7378°W)
Time: 19:01:03
(UTC-05:00)

Daily predictions for brighter satellites

Satellite Brightness Start Highest point End
(mag) Time Altitude Azimuth Time Altitude Azimuth Time Altitude Azimuth
Cosmos 1934 Rocket 4.4 19:26:09 10° SSE 19:31:50 40° E 19:37:27 10° NNE
Cosmos 405 3.1 19:31:22 10° S 19:34:54 84° W 19:38:25 10° N
COSMOS 2406 3.5 19:29:28 10° N 19:35:01 49° ENE 19:40:30 10° SE
NOAA 12 4.1 19:30:17 10° SSE 19:35:33 68° ENE 19:40:49 10° N
Tiangong 1 3.6 19:36:53 10° N 19:37:23 10° NNE 19:37:53 10° NNE
Cosmos 1844 3.9 19:35:05 10° SSW 19:40:49 86° WNW 19:46:39 10° NNE
RESURS DK-1 4.1 19:40:55 10° NNE 19:43:22 15° ENE 19:45:47 10° E
Cosmos 192 4.3 19:41:27 10° N 19:46:21 66° ENE 19:51:13 10° SSE
METEOR-M 4.3 19:45:36 10° S 19:50:56 81° WSW 19:56:17 10° NNW
GPS 2-05 Rocket1 3.3 19:47:38 10° SW 19:51:03 45° SSE 19:54:05 13° E
Cosmos 1821 Rocket 4.1 19:47:04 10° S 19:53:27 84° E 19:59:51 10° N
Cosmos 1812 Rocket 3.5 19:50:34 10° S 19:55:00 78° E 19:59:24 10° N
Cosmos 2344 3.8 19:50:29 10° SW 19:58:14 76° WNW 20:06:22 10° NNE
Spot 2 Rocket 4.0 19:55:04 10° SE 19:59:44 38° ENE 20:04:26 10° N
CZ-2D R/B 4.4 19:57:16 12° SE 20:00:06 24° ENE 20:03:14 10° NNE
Resurs 01 Rocket 2.1 19:57:56 10° SE 20:02:02 40° ENE 20:06:10 10° N
Delta 128 4.0 19:57:55 10° WSW 20:02:16 48° SSE 20:05:23 18° E
USA 215 3.3 19:57:46 10° NE 20:04:10 58° SE 20:10:33 10° SSW
Cosmos 1805 3.9 20:01:54 10° SSE 20:05:23 32° E 20:08:54 10° NNE
Meteor 1-22 Rocket 4.4 20:04:06 10° S 20:09:49 86° W 20:15:47 10° N
Yuri Rocket 3.0 20:05:58 10° W 20:10:14 67° S 20:12:47 22° ESE
Cosmos 1437 Rocket 4.2 20:06:28 10° SSW 20:10:14 43° W 20:14:06 10° N
Cosmos 1605 Rocket 4.0 20:05:22 10° S 20:11:27 61° E 20:17:40 10° NNE
ALOS 2.3 20:07:52 10° SSE 20:12:32 89° W 20:17:13 10° NNW
Delta 2 Rocket 4.0 20:08:57 10° WNW 20:13:34 48° N 20:16:04 22° ENE
SJ-6B 3.4 20:10:35 10° S 20:14:15 56° W 20:17:55 10° NNW
Envisat 4.3 20:17:16 19° ENE 20:17:51 20° ENE 20:21:27 10° NNE
Cosmos 1125 Rocket 3.5 20:18:55 10° S 20:23:56 52° ESE 20:28:58 10° NNE
ISS -2.0 20:21:45 10° S 20:23:08 18° SSE 20:23:08 18° SSE
Helios 1B rocket 2.6 20:20:32 10° NNE 20:24:32 48° E 20:28:30 10° S
Helios 1A 3.7 20:23:52 29° E 20:24:35 31° ENE 20:28:17 10° N
In-Cosmos 22 4.1 20:19:40 10° N 20:24:50 53° E 20:29:48 11° SSE
Aurora 2 Rocket 4.0 20:18:46 10° SW 20:24:53 34° S 20:27:02 25° SE
SWIFT 4.3 20:25:35 10° SW 20:28:34 18° S 20:30:05 16° SSE
Cosmos 2123 Rocket 3.9 20:24:43 10° N 20:31:04 81° E 20:37:19 10° S
Cosmos 1378 4.4 20:28:07 10° NNW 20:31:42 43° W 20:35:14 10° SSW
Cosmos 2278 Rocket 3.0 20:27:26 10° SW 20:32:57 54° WNW 20:38:30 10° N
Cosmos 1758 3.1 20:32:08 10° S 20:36:05 75° E 20:40:03 10° N
Spot 1 4.4 20:35:29 36° ESE 20:36:53 48° ENE 20:41:28 10° N
Cosmos 1833 Rocket 4.1 20:33:17 10° NNE 20:36:55 19° NE 20:36:55 19° NE
FENGYUN 3A 4.4 20:32:11 10° S 20:37:28 55° W 20:42:45 10° NNW
Lacrosse 5 3.9 20:34:11 10° WSW 20:38:30 28° NW 20:42:50 10° NNE
Cosmos 1153 Rocket 4.4 20:35:44 10° S 20:42:05 75° E 20:48:28 10° N
H-2A R/B 3.5 20:39:03 10° S 20:42:49 54° W 20:46:39 10° NNW
Cosmos 1953 2.2 20:41:32 10° S 20:45:36 89° WNW 20:49:40 10° N
Delta 2 Rocket 4.4 20:39:19 10° W 20:45:55 51° SSW 20:48:18 34° SE
Cosmos 2297 3.6 20:40:44 10° SSW 20:46:24 83° ESE 20:52:09 10° NNE
Resurs 1-3 3.9 20:42:53 10° S 20:47:13 66° WSW 20:51:35 10° NNW
Meteor 1-4 Rocket 2.5 20:43:49 10° S 20:47:18 76° W 20:50:46 10° N
SL-27 R/B 3.1 20:46:01 10° NNW 20:49:33 57° WSW 20:50:44 36° SSW
Cosmos 1544 4.0 20:47:50 10° SSW 20:51:20 48° W 20:54:53 10° N
SeaSat 1 3.6 20:46:44 10° S 20:51:21 41° WSW 20:55:59 10° NW
H-2A R/B 3.7 20:47:30 10° W 20:52:42 81° S 21:47:20 10° E
H-2A R/B 3.7 20:47:29 10° W 20:52:42 81° S 21:47:20 10° E
ATLAS 5 CENTAUR R/B 1.6 20:48:31 10° SSW 20:53:01 63° ESE 20:53:19 62° E
Meteor 1-29 3.6 20:51:05 10° N 20:53:40 47° N 20:53:40 47° N
Cosmos 1818 4.3 20:50:45 10° N 20:55:28 35° NE 20:55:28 35° NE
Cosmos 1459 Rocket 3.8 21:05:20 27° S 21:08:55 70° E 21:15:06 10° N
Cosmos 2082 Rocket 2.9 21:03:39 10° N 21:08:03 39° NE 21:08:03 39° NE
Cosmos 1447 Rocket 4.4 21:03:57 10° N 21:10:05 88° W 21:13:06 33° S
Cosmos 2173 Rocket 3.8 21:10:13 44° SSE 21:12:14 73° E 21:18:26 10° N
Tiangong 1 4.0 21:11:02 10° NW 21:11:36 14° NW 21:11:36 14° NW
Cosmos 468 4.4 21:11:23 10° NNW 21:16:38 87° WSW 21:16:40 87° SW
RESURS DK-1 3.9 21:17:46 10° NW 21:21:27 31° WSW 21:21:49 31° WSW
Envisat 4.5 21:57:28 33° WNW 21:57:28 33° WNW 22:01:12 10° NNW
CZ-3 Stage 3 3.1 21:42:01 10° W 22:03:52 80° W 22:03:52 80° W
